Location: Grand Moustoir
(47.8355°N, 3.3120°W)
Time: 12:14:25
(UTC+00:00)

Cosmos 2074 Rocket - Pass Details

Date: 20 January 2020
Orbit: 966 x 987 km, 82.9° (Epoch: 16 February)

Event Time Altitude Azimuth Distance (km) Brightness Sun altitude
Rises 04:49:48 0° 350° (N) 3,694 7.0 -30.5°
Enters shadow 04:50:09 - 350° (N) 3,562 6.9 -30.5°
Exits shadow 04:59:02 77° 206° (SSW) 1,001 3.9 -29.0°
Drops below altitude 10° 05:04:49 10° 177° (S) 2,707 6.3 -28.0°
Sets 05:07:18 0° 176° (S) 3,647 7.1 -27.6°
